Weather History for Pond Inlet, NU

Change the Weather History Date:

Monday, October 17, 2011

  Actual Average Record
Temperature  
Mean Temperature 21 °F -  
Max Temperature 25 °F 20 °F 37 °F (2006)
Min Temperature 17 °F 10 °F -2 °F (1999)
Degree Days  
Heating Degree Days 44    
Moisture  
Dew Point 19 °F    
Average Humidity 88    
Maximum Humidity 100    
Minimum Humidity 63    
Precipitation  
Precipitation 0.00 in - - ()
Sea Level Pressure  
Sea Level Pressure 29.68 in    
Wind  
Wind Speed 8 mph ()    
Max Wind Speed 16 mph    
Max Gust Speed -    
Visibility 5.1 miles    
Events Snow    
Averages and records for this station are not official NWS values.
T = Trace of Precipitation, MM = Missing Value Source: Averaged Metar Reports

Daily Weather History Graph

Daily Weather History Graph

Search for Another Location

Airport:

Trip Planner

Search our weather history database for the weather conditions in past years. The results will help you decide how hot, cold, wet, or windy it might be!

Date:

Astronomy

Oct. 17, 2011 Rise Set
Actual Time 8:50 AM EDT 5:02 PM EDT
Civil Twilight 7:35 AM EDT 6:17 PM EDT
Nautical Twilight 6:13 AM EDT 7:37 PM EDT
Astronomical Twilight 4:48 AM EDT 9:02 PM EDT
Moon No Moon Rise No Moon Set
Length of Visible Light 10h 41m
Length of Day
8h 12m
Waning Gibbous, 74% of the Moon is Illuminated
Oct 17
Waning Gibbous
Oct 19
Last Quarter
Oct 26
New
Nov 2
First Quarter
Nov 10
Full

Hourly Weather History & Observations

Time (EDT) Temp. Windchill Dew Point Humidity Pressure Visibility Wind Dir Wind Speed Gust Speed Precip Events Conditions
12:00 AM 24.8 °F - 23.0 °F 93% 29.70 in 2.0 mi SSE 2.3 mph - N/A Snow Light Snow
12:09 AM 23.0 °F - 23.0 °F 100% 29.68 in 1.4 mi South 2.3 mph - N/A Snow Light Snow
12:24 AM 23.0 °F - 23.0 °F 100% 29.66 in 2.0 mi South 2.3 mph - N/A Snow Light Snow
1:00 AM 23.0 °F 18.4 °F 21.2 °F 93% 29.67 in 2.4 mi SSE 3.5 mph - N/A Snow Light Snow
2:00 AM 23 °F - 22 °F 92% 29.66 in 2 mi South 3.5 mph - -   Overcast
2:00 AM 23.0 °F 18.4 °F 21.2 °F 93% 29.66 in 1.8 mi SSE 3.5 mph - N/A Snow Light Snow
2:43 AM 23.0 °F 15.8 °F 21.2 °F 93% 29.63 in 2.5 mi South 5.8 mph - N/A Snow Light Snow
3:00 AM 23.0 °F 15.8 °F 21.2 °F 93% 29.67 in 2.2 mi South 5.8 mph - N/A Snow Light Snow
3:18 AM 21.2 °F 13.6 °F 19.4 °F 93% 29.62 in 3.5 mi SSE 5.8 mph - N/A Snow Light Snow
3:48 AM 23.0 °F 14.7 °F 21.2 °F 93% 29.64 in 3.0 mi South 6.9 mph - N/A Snow Light Snow
4:00 AM 23.0 °F 14.7 °F 21.2 °F 93% 29.64 in 3.5 mi South 6.9 mph - N/A Snow Light Snow
4:32 AM 23.0 °F 14.7 °F 21.2 °F 93% 29.63 in 2.5 mi South 6.9 mph - N/A Snow Light Snow
5:00 AM 23 °F - 21 °F 89% 29.63 in 3 mi South 8.1 mph - - Snow Light Snow
5:00 AM 23.0 °F 13.1 °F 21.2 °F 93% 29.63 in 3.0 mi South 9.2 mph - N/A Snow Light Snow
5:42 AM 23.0 °F 13.1 °F 21.2 °F 93% 29.60 in 2.5 mi South 9.2 mph - N/A Snow Light Snow
5:50 AM 23.0 °F 13.1 °F 21.2 °F 93% 29.60 in 2.1 mi South 9.2 mph - N/A Snow Light Snow
5:53 AM 23.0 °F 12.4 °F 21.2 °F 93% 29.60 in 1.6 mi South 10.4 mph - N/A Snow Light Snow
5:55 AM 23.0 °F 13.1 °F 21.2 °F 93% 29.62 in 1.4 mi South 9.2 mph - N/A Snow Light Snow
6:00 AM 23.0 °F 13.1 °F 21.2 °F 93% 29.65 in 1.2 mi South 9.2 mph - N/A Snow Light Snow
6:14 AM 23.0 °F 13.1 °F 21.2 °F 93% 29.62 in 2.0 mi South 9.2 mph - N/A Snow Light Snow
6:21 AM 23.0 °F 13.1 °F 21.2 °F 93% 29.60 in 1.4 mi South 9.2 mph - N/A Snow Light Snow
6:34 AM 23.0 °F 13.1 °F 21.2 °F 93% 29.60 in 1.5 mi South 9.2 mph - N/A Snow Light Snow
6:36 AM 23.0 °F 12.4 °F 21.2 °F 93% 29.60 in 1.2 mi South 10.4 mph - N/A Snow Light Snow
6:42 AM 23.0 °F 13.1 °F 21.2 °F 93% 29.62 in 1.0 mi South 9.2 mph - N/A Snow Light Snow
6:56 AM 23.0 °F 13.1 °F 23.0 °F 100% 29.62 in 1.4 mi SSW 9.2 mph - N/A Snow Light Snow
7:00 AM 23.0 °F 13.1 °F 23.0 °F 100% 29.65 in 1.5 mi SSW 9.2 mph - N/A Snow Light Snow
7:12 AM 23.0 °F 12.4 °F 21.2 °F 93% 29.60 in 2.1 mi South 10.4 mph - N/A Snow Light Snow
7:23 AM 23.0 °F 12.4 °F 21.2 °F 93% 29.62 in 2.5 mi South 10.4 mph - N/A Snow Light Snow
7:42 AM 21.2 °F 9.5 °F 19.4 °F 93% 29.62 in 3.5 mi South 11.5 mph - N/A Snow Light Snow
8:00 AM 17 °F - 16 °F 94% 29.63 in 9 mi South 12.7 mph - -   Overcast
8:00 AM 17.6 °F 4.3 °F 15.8 °F 93% 29.63 in 9.0 mi South 12.7 mph - N/A Snow Light Snow
8:09 AM 17.6 °F 4.3 °F 15.8 °F 93% 29.63 in 9.0 mi South 12.7 mph - N/A   Overcast
8:49 AM 21.2 °F 9.5 °F 19.4 °F 93% 29.62 in 9.0 mi SSW 11.5 mph - N/A   Overcast
9:00 AM 23.0 °F 11.7 °F 21.2 °F 93% 29.66 in 9.0 mi SW 11.5 mph - N/A   Overcast
10:00 AM 23.0 °F 10.1 °F 17.6 °F 80% 29.65 in 9.0 mi West 15.0 mph - N/A   Overcast
10:10 AM 23.0 °F 10.1 °F 17.6 °F 80% 29.63 in 9.0 mi West 15.0 mph - N/A   Overcast
10:42 AM 23.0 °F 10.1 °F 17.6 °F 80% 29.65 in 9.0 mi West 15.0 mph - N/A   Overcast
11:00 AM 24 °F - 18 °F 68% 29.65 in 7 mi WSW 15.0 mph - -   Overcast
11:00 AM 24.8 °F 12.4 °F 17.6 °F 74% 29.65 in 30.0 mi WSW 15.0 mph - N/A Snow Light Snow
11:40 AM - - - N/A% - 30.0 mi SW 15.0 mph - N/A   Mostly Cloudy
12:00 PM 24.8 °F 12.9 °F 17.6 °F 74% 29.68 in 30.0 mi WSW 13.8 mph - N/A   Mostly Cloudy
12:30 PM - - - N/A% - 30.0 mi West 12.7 mph - N/A   Unknown
1:00 PM 24.8 °F 12.4 °F 17.6 °F 74% 29.69 in 30.0 mi West 15.0 mph - N/A Snow Light Snow
2:00 PM 25 °F - 17 °F 63% 29.68 in 9 mi WSW 16.1 mph - -   Overcast
2:00 PM 24.8 °F 11.9 °F 17.6 °F 74% 29.68 in 30.0 mi WSW 16.1 mph - N/A   Mostly Cloudy
3:00 PM 24.8 °F 11.9 °F 17.6 °F 74% 29.71 in 30.0 mi WSW 16.1 mph - N/A   Mostly Cloudy
4:00 PM 23.0 °F 11.1 °F 17.6 °F 80% 29.73 in 30.0 mi WSW 12.7 mph - N/A   Mostly Cloudy
5:00 PM 24 °F - 19 °F 73% 29.72 in 9 mi WSW 15.0 mph - -  
5:00 PM 23.0 °F 9.6 °F 19.4 °F 86% 29.72 in 30.0 mi WSW 16.1 mph - N/A   Mostly Cloudy
6:00 PM 24.8 °F 16.9 °F 19.4 °F 80% 29.76 in 30.0 mi WNW 6.9 mph - N/A   Mostly Cloudy
7:00 PM 19.4 °F 5.0 °F 15.8 °F 86% 29.77 in 9.0 mi SSW 16.1 mph - N/A   Overcast
8:00 PM 19 °F - 16 °F 81% 29.80 in 9 mi SSE 16.1 mph - -  
8:00 PM 19.4 °F 5.0 °F 15.8 °F 86% 29.80 in 9.0 mi SSE 16.1 mph - N/A   Clear
9:00 PM 19.4 °F 7.2 °F 15.8 °F 86% 29.82 in 9.0 mi SSE 11.5 mph - N/A   Scattered Clouds
9:19 PM 21.2 °F 8.9 °F 19.4 °F 93% 29.78 in 9.0 mi SSW 12.7 mph - N/A   Overcast
9:21 PM 19.4 °F 6.0 °F 17.6 °F 93% 29.78 in 9.0 mi SSW 13.8 mph - N/A   Overcast
10:00 PM 21.2 °F 9.5 °F 17.6 °F 86% 29.84 in 9.0 mi SSW 11.5 mph - N/A   Overcast
10:11 PM 19.4 °F 7.2 °F 15.8 °F 86% 29.81 in 9.0 mi South 11.5 mph - N/A   Overcast
10:25 PM 19.4 °F 6.0 °F 15.8 °F 86% 29.83 in 9.0 mi SSE 13.8 mph - N/A   Overcast
10:41 PM 17.6 °F 3.7 °F 14.0 °F 86% 29.83 in 9.0 mi SSE 13.8 mph - N/A   Scattered Clouds
11:00 PM 17 °F - 13 °F 80% 29.86 in 9 mi SSE 13.8 mph - -